Regional Weather Roundup
Issued by NWS

Home | Current Version | Previous Version | Text Only | Print | Product List | Glossary On
Versions: 1 2 3 4 5 6 7 8 9 10 11 12 13 14 15 16 17 18 19 20 21 22 23 24 25 26 27 28 29 30 31 32 33 34 35 36 37 38 39 40 41 42 43 44 45 46 47 48 49 50
000
ASUS43 KTOP 252159
RWRKS

WEATHER ROUNDUP FOR KANSAS
NATIONAL WEATHER SERVICE GOODLAND KS
500 PM CDT TUE APR 25 2017

NOTE:  "FAIR" INDICATES FEW OR NO CLOUDS BELOW 12,000 FEET WITH NO
SIGNIFICANT WEATHER AND/OR OBSTRUCTIONS TO VISIBILITY.

KSZ001>006-013>018-027>032-041>047-252300-
NORTHWEST KANSAS

CITY           SKY/WX    TMP DP  RH WIND       PRES   REMARKS
GOODLAND       CLOUDY    59  41  51 NE15G24   29.53F
HAYS           CLOUDY    56  44  64 N17       29.54S
HILL CITY      CLOUDY    54  44  69 N18       29.57R
RUSSELL        CLOUDY    53  43  68 N12       29.53R
$$

KSZ061>065-074>080-084>089-252300-
SOUTHWEST KANSAS

CITY           SKY/WX    TMP DP  RH WIND       PRES   REMARKS
DODGE CITY     LGT RAIN  54  48  80 N14       29.52S
ELKHART          N/A     54  46  74 NE14        N/A
GARDEN CITY    CLOUDY    57  44  62 NE10      29.54S
GREAT BEND     CLOUDY    55  47  74 N13G20    29.52S
$$

KSZ066>073-081>083-090>101-252300-
SOUTHEAST KANSAS

CITY           SKY/WX    TMP DP  RH WIND       PRES   REMARKS
CHANUTE        CLOUDY    74  59  59 S12       29.41S
COFFEYVILLE    CLOUDY    76  62  62 S10       29.41R
HUTCHINSON     CLOUDY    60  48  64 N16       29.47F
MEDICINE LODGE   N/A     58  49  72 N14       29.47R
NEWTON         CLOUDY    62  53  72 NW16      29.47R
PARSONS        CLOUDY    75  60  59 S7        29.42S
WICHITA INTL   LGT RAIN  65  55  70 N18       29.42F
WICHITA JABRA  CLOUDY    67  55  65 N16       29.43S
WINFIELD       CLOUDY    78  60  53 NW9       29.40F
$$

KSZ007>012-019>026-033>040-048>060-102>105-252300-
NORTHEAST KANSAS

CITY           SKY/WX    TMP DP  RH WIND       PRES   REMARKS
CONCORDIA      CLOUDY    50  42  74 N15       29.52R
EMPORIA        CLOUDY    71  57  61 NW12      29.41S
LAWRENCE       CLOUDY    71  58  63 S5        29.41S
MANHATTAN      CLOUDY    59  47  64 N9        29.47R
OLATHE IND     CLOUDY    71  57  61 S9        29.42S
OLATHE EXE     CLOUDY    71  58  63 SW10      29.42R
SALINA         CLOUDY    58  47  66 N15       29.50R
TOPEKA BILLARD CLOUDY    69  57  65 NW7       29.41R
TOPEKA FORBES  CLOUDY    71  57  61 NW6       29.41S
$$




USA.gov is the U.S. government's official web portal to all federal, state and local government web resources and services.